When you browse on this site, cookies collect data to enhance your experience and personalize the content and advertising you see.
Visit our Privacy Policy to learn more. By continuing to use the site, you agree to this use of cookies and data.
  • In United Kingdom
  • List of Countries
  • For 7 days
  • Water Temperature
  • Satellite Maps
  • Weather Map
  • Weather Widgets
  • user-avatar
    Login

    Hourly Weather Szekszard

    Today, 25 June, Tuesday

    Time Temperature Precipitation Wind Pressure Humidity
    00:00 +20°C° 0 mm 2 mps 757 mmHg 94%
    01:00 +20°C° 0 mm 2 mps 758 mmHg 94%
    02:00 +19°C° 0 mm 2 mps 757 mmHg 95%
    03:00 +19°C° 0 mm 2 mps 757 mmHg 95%
    04:00 +19°C° 0 mm 2 mps 757 mmHg 95%
    05:00 +20°C° 0 mm 2 mps 758 mmHg 93%
    06:00 +21°C° 0 mm 3 mps 758 mmHg 91%
    07:00 +22°C° 0 mm 3 mps 758 mmHg 89%
    08:00 +24°C° 0 mm 3 mps 759 mmHg 85%
    09:00 +26°C° 0 mm 3 mps 759 mmHg 80%
    10:00 +27°C° 0 mm 3 mps 759 mmHg 75%
    11:00 +29°C° 0 mm 2 mps 759 mmHg 70%
    12:00 +30°C° 0 mm 2 mps 759 mmHg 66%
    13:00 +31°C° 0 mm 2 mps 759 mmHg 61%
    14:00 +31°C° 0.1 mm 2 mps 759 mmHg 61%
    15:00 +31°C° 0.1 mm 2 mps 758 mmHg 62%
    16:00 +31°C° 0.1 mm 2 mps 758 mmHg 62%
    17:00 +30°C° 0.1 mm 2 mps 758 mmHg 67%
    18:00 +29°C° 0.1 mm 2 mps 758 mmHg 72%
    19:00 +27°C° 0.1 mm 1 mps 758 mmHg 78%
    20:00 +26°C° 0 mm 1 mps 759 mmHg 80%
    21:00 +25°C° 0 mm 1 mps 759 mmHg 83%
    22:00 +24°C° 0 mm 1 mps 759 mmHg 85%
    23:00 +24°C° 0 mm 1 mps 759 mmHg 86%

    Tomorrow, 26 June, Wednesday

    Time Temperature Precipitation Wind Pressure Humidity
    00:00 +23°C° 0 mm 1 mps 759 mmHg 88%
    01:00 +23°C° 0 mm 1 mps 759 mmHg 89%
    02:00 +23°C° 0 mm 1 mps 759 mmHg 90%
    03:00 +23°C° 0 mm 1 mps 759 mmHg 90%
    04:00 +21°C° 0 mm 2 mps 759 mmHg 91%
    05:00 +24°C° 0 mm 2 mps 759 mmHg 88%
    06:00 +25°C° 0 mm 2 mps 759 mmHg 84%
    07:00 +26°C° 0 mm 2 mps 759 mmHg 81%
    08:00 +27°C° 0 mm 2 mps 759 mmHg 76%
    09:00 +29°C° 0 mm 1 mps 759 mmHg 70%
    10:00 +30°C° 0 mm 1 mps 759 mmHg 65%
    11:00 +31°C° 0 mm 1 mps 759 mmHg 61%
    12:00 +32°C° 0 mm 1 mps 759 mmHg 57%
    13:00 +31°C° 0 mm 0 mps 759 mmHg 53%
    14:00 +33°C° 0 mm 1 mps 758 mmHg 53%
    15:00 +33°C° 0 mm 1 mps 758 mmHg 53%
    16:00 +33°C° 0 mm 1 mps 758 mmHg 53%
    17:00 +32°C° 0 mm 1 mps 757 mmHg 59%
    18:00 +30°C° 0 mm 1 mps 757 mmHg 66%
    19:00 +28°C° 0 mm 1 mps 757 mmHg 73%
    20:00 +27°C° 0 mm 1 mps 757 mmHg 74%
    21:00 +26°C° 0 mm 1 mps 757 mmHg 76%
    22:00 +23°C° 0 mm 0 mps 757 mmHg 77%
    23:00 +25°C° 0 mm 1 mps 757 mmHg 79%

    Day after tomorrow, 27 June, Thursday

    Time Temperature Precipitation Wind Pressure Humidity
    00:00 +24°C° 0 mm 1 mps 757 mmHg 81%
    01:00 +24°C° 0 mm 1 mps 757 mmHg 82%
    02:00 +24°C° 0 mm 1 mps 756 mmHg 84%
    03:00 +23°C° 0 mm 1 mps 756 mmHg 86%
    04:00 +23°C° 0 mm 1 mps 756 mmHg 87%
    05:00 +25°C° 0 mm 2 mps 756 mmHg 83%
    06:00 +26°C° 0 mm 2 mps 755 mmHg 80%
    07:00 +27°C° 0 mm 2 mps 755 mmHg 76%
    08:00 +29°C° 0 mm 3 mps 755 mmHg 73%
    09:00 +30°C° 0 mm 3 mps 755 mmHg 70%
    10:00 +32°C° 0 mm 4 mps 755 mmHg 66%
    11:00 +33°C° 0.3 mm 4 mps 754 mmHg 67%
    12:00 +33°C° 0.3 mm 4 mps 754 mmHg 67%
    13:00 +34°C° 0.3 mm 4 mps 754 mmHg 68%
    14:00 +33°C° 0.1 mm 5 mps 753 mmHg 68%
    15:00 +33°C° 0.1 mm 6 mps 753 mmHg 69%
    16:00 +32°C° 0.1 mm 6 mps 753 mmHg 70%
    17:00 +29°C° 0 mm 6 mps 753 mmHg 71%
    18:00 +27°C° 0 mm 5 mps 753 mmHg 71%
    19:00 +25°C° 0 mm 5 mps 753 mmHg 71%
    20:00 +23°C° 0 mm 5 mps 753 mmHg 71%
    21:00 +22°C° 0 mm 5 mps 754 mmHg 70%
    22:00 +21°C° 0 mm 5 mps 754 mmHg 70%
    23:00 +21°C° 0 mm 5 mps 755 mmHg 67%

    28 June, Friday

    Time Temperature Precipitation Wind Pressure Humidity
    00:00 +20°C° 0 mm 4 mps 755 mmHg 64%
    01:00 +19°C° 0 mm 4 mps 755 mmHg 62%
    02:00 +18°C° 0 mm 4 mps 755 mmHg 65%
    03:00 +17°C° 0 mm 3 mps 755 mmHg 68%
    04:00 +16°C° 0 mm 3 mps 755 mmHg 71%
    05:00 +17°C° 0 mm 3 mps 755 mmHg 71%
    06:00 +18°C° 0 mm 4 mps 756 mmHg 72%
    07:00 +19°C° 0 mm 4 mps 756 mmHg 72%
    08:00 +21°C° 0 mm 4 mps 756 mmHg 68%
    09:00 +22°C° 0 mm 4 mps 756 mmHg 64%
    10:00 +25°C° 0 mm 5 mps 756 mmHg 60%
    11:00 +25°C° 0 mm 5 mps 756 mmHg 59%
    12:00 +25°C° 0 mm 5 mps 755 mmHg 59%
    13:00 +26°C° 0 mm 6 mps 755 mmHg 58%
    14:00 +26°C° 0 mm 6 mps 755 mmHg 59%
    15:00 +26°C° 0 mm 5 mps 755 mmHg 60%
    16:00 +26°C° 0 mm 5 mps 755 mmHg 61%
    17:00 +23°C° 0 mm 4 mps 755 mmHg 66%
    18:00 +22°C° 0 mm 4 mps 755 mmHg 72%
    19:00 +21°C° 0 mm 3 mps 755 mmHg 77%
    20:00 +20°C° 0 mm 3 mps 755 mmHg 78%
    21:00 +19°C° 0 mm 3 mps 755 mmHg 79%
    22:00 +18°C° 0 mm 3 mps 756 mmHg 80%
    23:00 +17°C° 0 mm 3 mps 756 mmHg 80%

    29 June, Saturday

    Time Temperature Precipitation Wind Pressure Humidity
    00:00 +17°C° 0 mm 3 mps 756 mmHg 81%
    01:00 +16°C° 0 mm 3 mps 756 mmHg 82%
    02:00 +16°C° 0 mm 3 mps 756 mmHg 83%
    03:00 +14°C° 0 mm 3 mps 756 mmHg 85%
    04:00 +15°C° 0 mm 2 mps 756 mmHg 86%
    05:00 +16°C° 0 mm 2 mps 756 mmHg 84%
    06:00 +18°C° 0 mm 2 mps 756 mmHg 82%
    07:00 +19°C° 0 mm 2 mps 757 mmHg 80%
    08:00 +20°C° 0 mm 3 mps 757 mmHg 75%
    09:00 +22°C° 0 mm 3 mps 757 mmHg 71%
    10:00 +23°C° 0 mm 4 mps 757 mmHg 67%
    11:00 +25°C° 0.1 mm 3 mps 757 mmHg 64%
    12:00 +25°C° 0.1 mm 3 mps 757 mmHg 61%
    13:00 +25°C° 0.1 mm 3 mps 757 mmHg 59%
    14:00 +25°C° 0 mm 2 mps 756 mmHg 58%
    15:00 +26°C° 0 mm 2 mps 756 mmHg 57%
    16:00 +26°C° 0 mm 1 mps 756 mmHg 56%
    17:00 +24°C° 0 mm 1 mps 756 mmHg 61%
    18:00 +23°C° 0 mm 1 mps 756 mmHg 66%
    19:00 +22°C° 0 mm 1 mps 756 mmHg 71%
    20:00 +21°C° 0 mm 1 mps 757 mmHg 73%
    21:00 +20°C° 0 mm 1 mps 757 mmHg 75%
    22:00 +18°C° 0 mm 2 mps 757 mmHg 76%
    23:00 +17°C° 0 mm 2 mps 757 mmHg 78%

    30 June, Sunday

    Time Temperature Precipitation Wind Pressure Humidity
    00:00 +17°C° 0 mm 2 mps 757 mmHg 80%
    01:00 +16°C° 0 mm 2 mps 757 mmHg 82%
    02:00 +16°C° 0 mm 2 mps 757 mmHg 82%
    03:00 +16°C° 0 mm 2 mps 757 mmHg 83%
    04:00 +16°C° 0 mm 2 mps 757 mmHg 83%
    05:00 +17°C° 0 mm 2 mps 757 mmHg 79%
    06:00 +19°C° 0 mm 2 mps 757 mmHg 75%
    07:00 +20°C° 0 mm 2 mps 757 mmHg 71%
    08:00 +23°C° 0 mm 2 mps 758 mmHg 67%
    09:00 +24°C° 0 mm 2 mps 758 mmHg 63%
    10:00 +25°C° 0 mm 2 mps 758 mmHg 59%
    11:00 +26°C° 0 mm 2 mps 757 mmHg 58%
    12:00 +26°C° 0 mm 2 mps 757 mmHg 57%
    13:00 +27°C° 0 mm 2 mps 757 mmHg 56%
    14:00 +27°C° 0 mm 2 mps 757 mmHg 57%
    15:00 +27°C° 0 mm 2 mps 756 mmHg 57%
    16:00 +27°C° 0 mm 2 mps 756 mmHg 58%
    17:00 +25°C° 0 mm 2 mps 756 mmHg 63%
    18:00 +24°C° 0 mm 2 mps 756 mmHg 68%
    19:00 +23°C° 0 mm 2 mps 756 mmHg 73%
    20:00 +22°C° 0 mm 1 mps 756 mmHg 74%
    21:00 +21°C° 0 mm 1 mps 756 mmHg 74%
    22:00 +20°C° 0 mm 1 mps 756 mmHg 75%
    23:00 +20°C° 0 mm 1 mps 756 mmHg 76%
    Show more